AFL1215 ULLI-UUEE

Flight info

Callsign AFL1215
Flight time 1h 5m
Altitude 37000
Route SUGIN T873 NIRGI T73 NAMIN
Aircraft A320/M-V/N

Departure

Time 2026-05-08 04:42
Airport Pulkovo Airport (ULLI)

Arrival

Time 2026-05-08 05:47
Airport Sheremetyevo International Airport (UUEE)
Time Latitude Longitude Altitude Speed Heading
2026-05-08 04:32 59.79804 30.26314 85 ft 0 kts 287°
2026-05-08 04:36 59.79804 30.26309 85 ft 0 kts 287°
2026-05-08 04:36 59.79808 30.26288 85 ft 2 kts 287°
2026-05-08 04:36 59.79814 30.26249 85 ft 3 kts 287°
2026-05-08 04:37 59.79819 30.26193 85 ft 4 kts 269°
2026-05-08 04:37 59.79797 30.26153 85 ft 5 kts 200°
2026-05-08 04:37 59.79760 30.26131 85 ft 6 kts 196°
2026-05-08 04:37 59.79713 30.26104 85 ft 7 kts 197°
2026-05-08 04:38 59.79656 30.26066 85 ft 9 kts 200°
2026-05-08 04:38 59.79584 30.26012 85 ft 11 kts 185°
2026-05-08 04:38 59.79536 30.26138 85 ft 14 kts 105°
2026-05-08 04:38 59.79508 30.26339 85 ft 16 kts 105°
2026-05-08 04:39 59.79474 30.26569 85 ft 18 kts 106°
2026-05-08 04:39 59.79438 30.26779 85 ft 9 kts 110°
2026-05-08 04:39 59.79416 30.26926 85 ft 12 kts 107°
2026-05-08 04:39 59.79388 30.27109 85 ft 15 kts 105°
2026-05-08 04:40 59.79357 30.27327 85 ft 17 kts 105°
2026-05-08 04:40 59.79322 30.27564 85 ft 19 kts 107°
2026-05-08 04:40 59.79281 30.27828 85 ft 20 kts 107°
2026-05-08 04:40 59.79241 30.28110 85 ft 21 kts 114°
2026-05-08 04:41 59.79116 30.28236 85 ft 22 kts 197°
2026-05-08 04:41 59.79079 30.27989 85 ft 22 kts 284°
2026-05-08 04:41 59.79183 30.27246 85 ft 90 kts 286°
2026-05-08 04:41 59.79420 30.25655 86 ft 148 kts 286°
2026-05-08 04:42 59.79744 30.23475 322 ft 175 kts 285°
2026-05-08 04:42 59.80079 30.21130 1057 ft 176 kts 288°
2026-05-08 04:42 59.80400 30.18927 1962 ft 166 kts 289°
2026-05-08 04:42 59.80741 30.16648 2445 ft 180 kts 290°
2026-05-08 04:43 59.81118 30.14165 2815 ft 201 kts 290°
2026-05-08 04:43 59.81535 30.11381 3310 ft 219 kts 289°
2026-05-08 04:43 59.81959 30.08499 4090 ft 223 kts 289°
2026-05-08 04:43 59.82388 30.05564 4946 ft 225 kts 289°
2026-05-08 04:44 59.82819 30.02572 5822 ft 227 kts 286°
2026-05-08 04:44 59.82816 29.99464 6638 ft 238 kts 256°
2026-05-08 04:44 59.81929 29.96669 7513 ft 249 kts 225°
2026-05-08 04:44 59.80404 29.95067 8347 ft 258 kts 200°
2026-05-08 04:45 59.78651 29.94112 9124 ft 264 kts 199°
2026-05-08 04:45 59.76889 29.93172 9901 ft 268 kts 198°
2026-05-08 04:45 59.74979 29.92904 10447 ft 289 kts 170°
2026-05-08 04:45 59.73148 29.94692 10946 ft 307 kts 137°
2026-05-08 04:46 59.71952 29.98169 11450 ft 317 kts 108°
2026-05-08 04:46 59.71323 30.02418 11921 ft 330 kts 101°
2026-05-08 04:46 59.70787 30.06963 12306 ft 348 kts 101°
2026-05-08 04:46 59.70187 30.11766 12656 ft 366 kts 101°
2026-05-08 04:47 59.69696 30.16788 13227 ft 374 kts 95°
2026-05-08 04:47 59.69464 30.21876 13905 ft 378 kts 90°
2026-05-08 04:47 59.69373 30.27096 14557 ft 383 kts 88°
2026-05-08 04:47 59.69242 30.32383 15158 ft 391 kts 92°
2026-05-08 04:48 59.68893 30.37790 15773 ft 398 kts 98°
2026-05-08 04:48 59.68362 30.43153 16372 ft 404 kts 101°
2026-05-08 04:48 59.67783 30.48574 17007 ft 408 kts 101°
2026-05-08 04:48 59.67185 30.54059 17814 ft 407 kts 101°
2026-05-08 04:49 59.66579 30.59642 18433 ft 411 kts 101°
2026-05-08 04:49 59.65981 30.65172 18988 ft 416 kts 102°
2026-05-08 04:49 59.65406 30.70853 19554 ft 421 kts 101°
2026-05-08 04:49 59.64891 30.76913 20165 ft 425 kts 100°
2026-05-08 04:50 59.64401 30.82880 20753 ft 429 kts 100°
2026-05-08 04:50 59.63923 30.88702 21272 ft 434 kts 100°
2026-05-08 04:50 59.63433 30.94592 21791 ft 438 kts 100°
2026-05-08 04:50 59.62937 31.00543 22304 ft 442 kts 101°
2026-05-08 04:51 59.62434 31.06531 22819 ft 446 kts 101°
2026-05-08 04:51 59.61919 31.12594 23313 ft 450 kts 101°
2026-05-08 04:51 59.61397 31.18713 23803 ft 453 kts 101°
2026-05-08 04:51 59.60873 31.24802 24279 ft 457 kts 101°
2026-05-08 04:52 59.60337 31.31024 24734 ft 461 kts 101°
2026-05-08 04:52 59.59790 31.37302 25200 ft 464 kts 102°
2026-05-08 04:52 59.59250 31.43498 25650 ft 467 kts 102°
2026-05-08 04:52 59.58696 31.49809 26132 ft 469 kts 102°
2026-05-08 04:53 59.58133 31.56175 26596 ft 471 kts 102°
2026-05-08 04:53 59.57549 31.62757 27037 ft 474 kts 102°
2026-05-08 04:53 59.56951 31.69448 27459 ft 477 kts 103°
2026-05-08 04:53 59.56344 31.76239 27864 ft 480 kts 103°
2026-05-08 04:54 59.55740 31.82953 28261 ft 482 kts 103°
2026-05-08 04:54 59.55122 31.89747 28639 ft 485 kts 104°
2026-05-08 04:54 59.54489 31.96639 29005 ft 489 kts 104°
2026-05-08 04:54 59.53790 32.03501 29354 ft 488 kts 109°
2026-05-08 04:55 59.52560 32.09957 29697 ft 482 kts 123°
2026-05-08 04:55 59.50715 32.15792 30025 ft 474 kts 135°
2026-05-08 04:55 59.48397 32.20797 30355 ft 468 kts 143°
2026-05-08 04:55 59.45992 32.25396 30803 ft 465 kts 144°
2026-05-08 04:56 59.43598 32.29904 31237 ft 464 kts 144°
2026-05-08 04:56 59.41214 32.34430 31652 ft 463 kts 144°
2026-05-08 04:56 59.38857 32.38935 32021 ft 464 kts 143°
2026-05-08 04:56 59.36538 32.43394 32357 ft 464 kts 143°
2026-05-08 04:57 59.34213 32.47878 32708 ft 464 kts 143°
2026-05-08 04:57 59.31864 32.52412 33057 ft 464 kts 142°
2026-05-08 04:57 59.29537 32.56902 33394 ft 463 kts 142°
2026-05-08 04:57 59.27224 32.61356 33746 ft 463 kts 142°
2026-05-08 04:58 59.24947 32.65730 34045 ft 463 kts 143°
2026-05-08 04:58 59.22653 32.70144 34344 ft 462 kts 143°
2026-05-08 04:58 59.20390 32.74494 34618 ft 461 kts 143°
2026-05-08 04:58 59.18090 32.78899 34852 ft 461 kts 143°
2026-05-08 04:59 59.15831 32.83215 35107 ft 460 kts 143°
2026-05-08 04:59 59.13543 32.87569 35366 ft 458 kts 142°
2026-05-08 04:59 59.11283 32.91860 35602 ft 458 kts 142°
2026-05-08 04:59 59.09009 32.96170 35757 ft 458 kts 142°
2026-05-08 05:00 59.06705 33.00529 35974 ft 459 kts 142°
2026-05-08 05:00 59.04429 33.04826 36142 ft 459 kts 142°
2026-05-08 05:00 59.02124 33.09172 36314 ft 460 kts 142°
2026-05-08 05:00 58.99855 33.13441 36467 ft 460 kts 142°
2026-05-08 05:01 58.95249 33.22082 36512 ft 462 kts 142°
2026-05-08 05:01 58.92949 33.26381 36690 ft 463 kts 142°
2026-05-08 05:01 58.90626 33.30712 36875 ft 464 kts 142°
2026-05-08 05:02 58.88294 33.35035 37038 ft 464 kts 142°
2026-05-08 05:02 58.85932 33.39385 37086 ft 464 kts 141°
2026-05-08 05:02 58.81261 33.47993 37095 ft 464 kts 141°
2026-05-08 05:03 58.76606 33.56565 37120 ft 464 kts 142°
2026-05-08 05:03 58.71934 33.65149 37118 ft 464 kts 142°
2026-05-08 05:04 58.67278 33.73702 37101 ft 462 kts 142°
2026-05-08 05:04 58.62574 33.82293 37106 ft 463 kts 142°
2026-05-08 05:05 58.57831 33.90910 37094 ft 464 kts 142°
2026-05-08 05:05 58.53158 33.99365 37095 ft 464 kts 142°
2026-05-08 05:06 58.48487 34.07786 37104 ft 463 kts 142°
2026-05-08 05:06 58.43833 34.16140 37079 ft 463 kts 142°
2026-05-08 05:07 58.39131 34.24550 37082 ft 462 kts 142°
2026-05-08 05:07 58.34454 34.32888 37076 ft 462 kts 143°
2026-05-08 05:08 58.29784 34.41182 37082 ft 462 kts 143°
2026-05-08 05:08 58.25112 34.49451 37080 ft 462 kts 142°
2026-05-08 05:09 58.20411 34.57697 37077 ft 461 kts 144°
2026-05-08 05:09 58.15509 34.65512 37075 ft 460 kts 147°
2026-05-08 05:10 58.08150 34.77183 37054 ft 457 kts 147°
2026-05-08 05:11 58.03199 34.84985 37058 ft 457 kts 147°
2026-05-08 05:11 57.98220 34.92797 37041 ft 458 kts 147°
2026-05-08 05:12 57.93228 35.00599 37067 ft 458 kts 147°
2026-05-08 05:12 57.88254 35.08338 37071 ft 458 kts 147°
2026-05-08 05:13 57.83329 35.15946 37034 ft 458 kts 147°
2026-05-08 05:13 57.78444 35.23484 37071 ft 458 kts 147°
2026-05-08 05:14 57.73566 35.31001 37033 ft 455 kts 147°
2026-05-08 05:14 57.68675 35.38516 37081 ft 456 kts 146°
2026-05-08 05:15 57.63803 35.45982 37049 ft 455 kts 147°
2026-05-08 05:15 57.58815 35.53576 37037 ft 456 kts 146°
2026-05-08 05:15 57.56309 35.57386 36930 ft 455 kts 146°
2026-05-08 05:16 57.53836 35.61146 36344 ft 462 kts 147°
2026-05-08 05:16 57.51339 35.64937 35741 ft 469 kts 147°
2026-05-08 05:16 57.48759 35.68866 35178 ft 470 kts 148°
2026-05-08 05:16 57.46260 35.72676 34620 ft 469 kts 149°
2026-05-08 05:17 57.43729 35.76515 33886 ft 469 kts 149°
2026-05-08 05:17 57.41208 35.80319 33107 ft 470 kts 148°
2026-05-08 05:17 57.38710 35.84080 32319 ft 471 kts 148°
2026-05-08 05:17 57.36156 35.87921 31514 ft 472 kts 148°
2026-05-08 05:18 57.33618 35.91729 30666 ft 473 kts 148°
2026-05-08 05:18 57.31080 35.95531 29796 ft 475 kts 148°
2026-05-08 05:18 57.28518 35.99361 28931 ft 475 kts 147°
2026-05-08 05:18 57.25988 36.03141 28322 ft 470 kts 147°
2026-05-08 05:19 57.23481 36.06887 27782 ft 464 kts 147°
2026-05-08 05:19 57.21002 36.10583 27183 ft 459 kts 147°
2026-05-08 05:19 57.18514 36.14284 26565 ft 455 kts 147°
2026-05-08 05:19 57.16083 36.17889 25961 ft 451 kts 147°
2026-05-08 05:20 57.13663 36.21474 25399 ft 446 kts 147°
2026-05-08 05:20 57.11258 36.25032 24810 ft 443 kts 147°
2026-05-08 05:20 57.08866 36.28564 24214 ft 440 kts 147°
2026-05-08 05:20 57.06498 36.32051 23656 ft 436 kts 147°
2026-05-08 05:21 57.04171 36.35471 23135 ft 433 kts 147°
2026-05-08 05:21 57.01840 36.38873 22621 ft 428 kts 147°
2026-05-08 05:21 56.99508 36.42241 22097 ft 425 kts 147°
2026-05-08 05:21 56.97194 36.45578 21582 ft 421 kts 147°
2026-05-08 05:22 56.94919 36.48856 21071 ft 418 kts 147°
2026-05-08 05:22 56.92652 36.52119 20575 ft 414 kts 147°
2026-05-08 05:22 56.90435 36.55305 20064 ft 410 kts 147°
2026-05-08 05:22 56.88173 36.58543 19518 ft 407 kts 147°
2026-05-08 05:23 56.85933 36.61759 18995 ft 404 kts 147°
2026-05-08 05:23 56.83714 36.64958 18488 ft 401 kts 146°
2026-05-08 05:23 56.81508 36.68156 17972 ft 397 kts 147°
2026-05-08 05:23 56.79314 36.71337 17444 ft 394 kts 147°
2026-05-08 05:24 56.77132 36.74485 16892 ft 391 kts 147°
2026-05-08 05:24 56.74996 36.77557 16366 ft 389 kts 147°
2026-05-08 05:24 56.72966 36.80731 15800 ft 392 kts 136°
2026-05-08 05:24 56.71554 36.85003 15254 ft 400 kts 112°
2026-05-08 05:25 56.70977 36.89914 14791 ft 398 kts 100°
2026-05-08 05:25 56.70591 36.95003 14250 ft 397 kts 99°
2026-05-08 05:25 56.70213 37.00058 13659 ft 397 kts 99°
2026-05-08 05:25 56.69819 37.05056 13156 ft 393 kts 100°
2026-05-08 05:26 56.69411 37.09994 12704 ft 389 kts 100°
2026-05-08 05:26 56.69001 37.14827 12280 ft 384 kts 100°
2026-05-08 05:26 56.68583 37.19667 11873 ft 380 kts 100°
2026-05-08 05:26 56.68160 37.24518 11431 ft 376 kts 100°
2026-05-08 05:27 56.67745 37.29232 11120 ft 368 kts 100°
2026-05-08 05:27 56.67344 37.33775 11056 ft 353 kts 100°
2026-05-08 05:27 56.66729 37.38068 10940 ft 334 kts 121°
2026-05-08 05:27 56.65289 37.41148 10841 ft 307 kts 152°
2026-05-08 05:28 56.63437 37.42718 10521 ft 292 kts 168°
2026-05-08 05:28 56.61504 37.43809 10201 ft 289 kts 169°
2026-05-08 05:28 56.59602 37.44975 9909 ft 288 kts 166°
2026-05-08 05:28 56.57711 37.46294 9602 ft 288 kts 164°
2026-05-08 05:29 56.55812 37.47726 9276 ft 286 kts 163°
2026-05-08 05:29 56.53910 37.49215 9024 ft 281 kts 162°
2026-05-08 05:29 56.52026 37.50311 8975 ft 258 kts 185°
2026-05-08 05:29 56.50354 37.49563 8987 ft 231 kts 218°
2026-05-08 05:30 56.49029 37.47813 8997 ft 226 kts 222°
2026-05-08 05:30 56.47707 37.46030 8996 ft 225 kts 221°
2026-05-08 05:30 56.46401 37.44318 8991 ft 225 kts 221°
2026-05-08 05:30 56.45074 37.42607 8989 ft 225 kts 220°
2026-05-08 05:31 56.43814 37.40786 8984 ft 220 kts 236°
2026-05-08 05:31 56.43191 37.38249 9001 ft 216 kts 264°
2026-05-08 05:31 56.43217 37.35421 8997 ft 220 kts 272°
2026-05-08 05:31 56.43306 37.32537 8995 ft 221 kts 272°
2026-05-08 05:32 56.43385 37.29689 8998 ft 221 kts 272°
2026-05-08 05:32 56.43465 37.26775 8993 ft 220 kts 272°
2026-05-08 05:32 56.43537 37.23929 8991 ft 220 kts 269°
2026-05-08 05:32 56.43296 37.21054 8988 ft 221 kts 253°
2026-05-08 05:33 56.42660 37.18386 8990 ft 222 kts 247°
2026-05-08 05:33 56.41947 37.15752 8992 ft 222 kts 246°
2026-05-08 05:33 56.41234 37.13131 8982 ft 223 kts 246°
2026-05-08 05:33 56.40341 37.10777 8967 ft 228 kts 223°
2026-05-08 05:34 56.38883 37.09542 8979 ft 241 kts 195°
2026-05-08 05:34 56.37179 37.09806 8969 ft 256 kts 163°
2026-05-08 05:34 56.35687 37.11641 8977 ft 267 kts 142°
2026-05-08 05:34 56.34345 37.13943 8978 ft 269 kts 141°
2026-05-08 05:35 56.32982 37.16281 8975 ft 269 kts 141°
2026-05-08 05:35 56.31638 37.18556 8964 ft 269 kts 142°
2026-05-08 05:35 56.30259 37.20861 8956 ft 269 kts 142°
2026-05-08 05:35 56.28880 37.23146 8707 ft 270 kts 142°
2026-05-08 05:36 56.27506 37.25414 8423 ft 268 kts 141°
2026-05-08 05:36 56.26146 37.27660 8150 ft 266 kts 143°
2026-05-08 05:36 56.24635 37.29496 7870 ft 257 kts 162°
2026-05-08 05:36 56.22980 37.30482 7606 ft 251 kts 170°
2026-05-08 05:37 56.21305 37.31268 7345 ft 249 kts 171°
2026-05-08 05:37 56.19647 37.32035 7086 ft 247 kts 170°
2026-05-08 05:37 56.17991 37.32961 6949 ft 252 kts 156°
2026-05-08 05:37 56.16729 37.35099 6932 ft 259 kts 118°
2026-05-08 05:38 56.16352 37.38201 6648 ft 259 kts 80°
2026-05-08 05:38 56.16810 37.41293 6412 ft 254 kts 68°
2026-05-08 05:38 56.17395 37.44282 6161 ft 253 kts 68°
2026-05-08 05:38 56.17942 37.47258 5916 ft 252 kts 70°
2026-05-08 05:39 56.18434 37.50222 5672 ft 250 kts 71°
2026-05-08 05:39 56.18900 37.53213 5421 ft 249 kts 72°
2026-05-08 05:39 56.19351 37.56224 5166 ft 248 kts 74°
2026-05-08 05:39 56.19381 37.59261 4878 ft 250 kts 108°
2026-05-08 05:40 56.18423 37.61776 4889 ft 246 kts 136°
2026-05-08 05:40 56.17169 37.63874 4915 ft 249 kts 138°
2026-05-08 05:40 56.15883 37.66014 4935 ft 250 kts 137°
2026-05-08 05:40 56.14647 37.68168 4849 ft 252 kts 136°
2026-05-08 05:41 56.13415 37.70377 4578 ft 251 kts 135°
2026-05-08 05:41 56.12185 37.72613 4320 ft 249 kts 135°
2026-05-08 05:41 56.10986 37.74806 4070 ft 248 kts 134°
2026-05-08 05:41 56.09766 37.76934 3937 ft 239 kts 144°
2026-05-08 05:42 56.08282 37.77903 3859 ft 222 kts 186°
2026-05-08 05:42 56.06853 37.77239 3896 ft 209 kts 206°
2026-05-08 05:42 56.05535 37.76192 3802 ft 204 kts 207°
2026-05-08 05:42 56.04223 37.75201 3533 ft 200 kts 205°
2026-05-08 05:43 56.02942 37.74326 3292 ft 194 kts 205°
2026-05-08 05:43 56.01920 37.72892 3021 ft 181 kts 242°
2026-05-08 05:43 56.01439 37.70902 2841 ft 166 kts 259°
2026-05-08 05:43 56.01191 37.68970 2643 ft 151 kts 264°
2026-05-08 05:44 56.00978 37.67171 2558 ft 150 kts 263°
2026-05-08 05:44 56.00737 37.65337 2504 ft 151 kts 262°
2026-05-08 05:44 56.00476 37.63529 2487 ft 150 kts 260°
2026-05-08 05:44 56.00205 37.61734 2515 ft 150 kts 259°
2026-05-08 05:45 55.99925 37.59916 2414 ft 150 kts 260°
2026-05-08 05:45 55.99648 37.58126 2215 ft 149 kts 259°
2026-05-08 05:45 55.99371 37.56316 2014 ft 149 kts 259°
2026-05-08 05:45 55.99099 37.54537 1805 ft 149 kts 260°
2026-05-08 05:46 55.98822 37.52706 1607 ft 148 kts 259°
2026-05-08 05:46 55.98551 37.50918 1419 ft 147 kts 260°
2026-05-08 05:46 55.98280 37.49135 1207 ft 147 kts 259°
2026-05-08 05:46 55.98006 37.47368 1001 ft 147 kts 259°
2026-05-08 05:47 55.97740 37.45589 824 ft 147 kts 259°
2026-05-08 05:47 55.97476 37.43805 665 ft 144 kts 259°
2026-05-08 05:47 55.97250 37.42234 637 ft 94 kts 255°
2026-05-08 05:47 55.97158 37.41548 637 ft 37 kts 257°
2026-05-08 05:48 55.97063 37.41147 637 ft 33 kts 234°
2026-05-08 05:48 55.96916 37.40852 637 ft 29 kts 224°
2026-05-08 05:48 55.96836 37.40827 637 ft 8 kts 166°
2026-05-08 05:48 55.96779 37.40867 637 ft 9 kts 131°
2026-05-08 05:49 55.96775 37.40984 637 ft 10 kts 81°
2026-05-08 05:49 55.96790 37.41117 637 ft 11 kts 77°
2026-05-08 05:49 55.96790 37.41258 637 ft 12 kts 111°
2026-05-08 05:49 55.96744 37.41342 637 ft 0 kts 156°
2026-05-08 05:50 55.96737 37.41347 637 ft 0 kts 156°